WWA3573 KMIA-KSFB

Flight info

Callsign WWA3573
Flight time N/A
Altitude 5000
Route SHANC T347 BAIRN
Aircraft BE58/L-SDFGRY/C

Departure

Time 2026-04-30 22:07
Airport Miami International Airport (KMIA)

Arrival

Time N/A
Airport Orlando Sanford International Airport (KSFB)
Time Latitude Longitude Altitude Speed Heading
2026-04-30 21:41 25.80617 -80.29194 8 ft 0 kts 359°
2026-04-30 21:58 25.80622 -80.29193 7 ft 3 kts
2026-04-30 21:58 25.80640 -80.29166 8 ft 4 kts 89°
2026-04-30 21:58 25.80637 -80.29137 7 ft 3 kts 102°
2026-04-30 21:58 25.80623 -80.29128 7 ft 2 kts 187°
2026-04-30 21:59 25.80596 -80.29133 8 ft 4 kts 184°
2026-04-30 21:59 25.80570 -80.29134 8 ft 3 kts 179°
2026-04-30 21:59 25.80543 -80.29134 8 ft 3 kts 181°
2026-04-30 22:00 25.80521 -80.29134 7 ft 0 kts 179°
2026-04-30 22:00 25.80519 -80.29134 8 ft 2 kts 180°
2026-04-30 22:00 25.80480 -80.29134 8 ft 6 kts 184°
2026-04-30 22:01 25.80442 -80.29173 7 ft 10 kts 260°
2026-04-30 22:01 25.80435 -80.29273 8 ft 15 kts 266°
2026-04-30 22:01 25.80431 -80.29385 8 ft 12 kts 270°
2026-04-30 22:01 25.80430 -80.29462 8 ft 0 kts 272°
2026-04-30 22:02 25.80431 -80.29511 8 ft 12 kts 268°
2026-04-30 22:02 25.80422 -80.29608 8 ft 13 kts 267°
2026-04-30 22:02 25.80418 -80.29718 7 ft 15 kts 268°
2026-04-30 22:02 25.80413 -80.29832 7 ft 14 kts 267°
2026-04-30 22:03 25.80409 -80.29938 8 ft 13 kts 267°
2026-04-30 22:03 25.80406 -80.30016 8 ft 3 kts 268°
2026-04-30 22:03 25.80396 -80.30043 7 ft 3 kts 212°
2026-04-30 22:03 25.80391 -80.30045 8 ft 0 kts 190°
2026-04-30 22:05 25.80385 -80.30046 7 ft 0 kts 190°
2026-04-30 22:06 25.80306 -80.29998 7 ft 14 kts 108°
2026-04-30 22:06 25.80302 -80.29826 8 ft 43 kts 90°
2026-04-30 22:07 25.80323 -80.29231 34 ft 97 kts 90°
2026-04-30 22:07 25.80424 -80.28489 348 ft 104 kts 84°
2026-04-30 22:07 25.80589 -80.27654 672 ft 111 kts 76°
2026-04-30 22:07 25.80926 -80.26889 1027 ft 118 kts 57°
2026-04-30 22:08 25.81642 -80.26345 1279 ft 131 kts 19°
2026-04-30 22:08 25.82615 -80.26283 1496 ft 146 kts
2026-04-30 22:08 25.83598 -80.26344 1960 ft 134 kts 357°
2026-04-30 22:08 25.84484 -80.26589 2313 ft 133 kts 326°
2026-04-30 22:09 25.85021 -80.27389 2600 ft 132 kts 279°
2026-04-30 22:09 25.84912 -80.28352 2903 ft 125 kts 236°
2026-04-30 22:09 25.84250 -80.28909 3212 ft 122 kts 197°
2026-04-30 22:09 25.83422 -80.29080 3533 ft 121 kts 186°
2026-04-30 22:10 25.82585 -80.29131 3839 ft 121 kts 182°
2026-04-30 22:10 25.81740 -80.29125 4114 ft 122 kts 180°
2026-04-30 22:10 25.80916 -80.28913 4368 ft 124 kts 148°
2026-04-30 22:10 25.80231 -80.28349 4606 ft 127 kts 128°
2026-04-30 22:11 25.80465 -80.26550 5092 ft 131 kts 36°
2026-04-30 22:11 25.81324 -80.26269 5212 ft 140 kts 357°
2026-04-30 22:11 25.82375 -80.26377 5200 ft 158 kts 351°
2026-04-30 22:12 25.83518 -80.26525 5210 ft 170 kts 350°
2026-04-30 22:12 25.84650 -80.26811 5108 ft 164 kts 296°
2026-04-30 22:12 25.85686 -80.27297 3716 ft 200 kts 343°
2026-04-30 22:12 25.86961 -80.27523 4018 ft 186 kts 351°
2026-04-30 22:13 25.88233 -80.27726 3960 ft 176 kts 321°
2026-04-30 22:13 25.88462 -80.27548 1669 ft 230 kts 19°